Кличка

Россия / Забайкальский край     50°26′31″N   117°59′53″E
В апреле 2022 года жителям России запретили посещать сайт meteo.paraplan.net по решению Генеральной прокуратуры. Аудитория сайта уменьшилась в 10 раз. Владельцы сайта не видят смысла в поддержке погодного сервера в таких условиях. Сайт будет закрыт в октябре.
темп.,
°C
ветер,
м/с
пор.,
м/с
влажн.,
%
обл.,
%
осадки,
мм/ч
давл.,
гПа
погр.,
м
4 октября, вт
вт400:00−6з22410 0.0 103311
03:00−7з22430 0.0 103210
06:00−8з22450 0.0 103210
09:00−4зсз22330 0.0 1031159
12:00+3зсз45244 0.0 10281945
15:00+4сз452074 0.0 10262563
18:00+2ссз462485 0.0 1025208
21:00−3сз223689 0.0 102813
5 октября, ср
ср500:00−3зсз2239100 0.0 102812
03:00−3з224099 0.0 102812
06:00−6зсз22475 0.0 102810
09:00−2зсз22365 0.0 1028163
12:00+3сз34255 0.0 10261962
15:00+5зсз352192 0.0 10232507
18:00+3зсз582793 0.0 1024435
21:00−2зсз22425 0.0 102611
6 октября, чт
чт600:00−4зюз11495 0.0 102610
03:00−5зюз11565 0.0 102610
06:00−6зюз11615 0.0 102510
09:00−2зюз12474 0.0 1025136
12:00+4зюз33320 0.0 10211420
15:00+6зюз34266 0.0 10191980
18:00+4зюз33325 0.0 101954
21:00−1з11445 0.0 102110
7 октября, пт
пт700:00−3зсз11505 0.0 102210
03:00−4зсз11551 0.0 102310
06:00−5зсз11605 0.0 102410
09:00−1з114688 0.0 102494
12:00+5зюз233313 0.0 1021903
15:00+7з342873 0.0 10201942
18:00+5зюз1136100 0.0 102010
21:00+1с1143100 0.0 102110
8 октября, сб
сб800:000ссв2246100 0.0 102320
03:00−2ссв2250100 0.0 102320
06:00−2ссв2253100 0.0 102421
09:000ссв344781 0.0 1024175
12:00+5св783167 0.0 10221447
15:00+7св782752 0.0 10212045
18:00+5св6103381 0.0 1023446
21:00+1ссв5125181 0.0 1026300